Home   Weather   Paderborn   Past weeks

Flag for Germany Past Weather in Paderborn, North Rhine-Westphalia, Germany — Yesterday and Last 2 Weeks

Now
27 °F

Chilly.


Feels Like: 27 °F
Forecast: 22 / 32 °F
Wind: 2 mph from Southeast

Location: Bueckeburg

Current Time: Jan 21, 2017 at 7:21:47 am

Latest Report: Jan 21, 2017 at 6:20 am


Visibility: N/A

Pressure: 30.48 "Hg

Humidity: 93%

Dew Point: 25 °F

Location of PaderbornLocation

Past Weather in Paderborn — Graph

°F

Paderborn Temperature Yesterday

Maximum temperature yesterday: 37 °F (at 3:20 pm)
Minimum temperature yesterday: 25 °F (at 8:20 pm)
Average temperature yesterday: 30 °F

High & Low Weather Summary for the Past Weeks

 TemperatureHumidityPressure
High43 °F (Jan 11, 2:07 pm)100% (Jan 7, 5:20 pm)30.77 "Hg (Jan 7, 5:20 pm)
Low14 °F (Jan 6, 8:20 am)52% (Jan 19, 2:20 pm)28.91 "Hg (Jan 13, 4:20 am)
Average32 °F88%30.15 "Hg
* Reported Jan 6 5:20 am — Jan 21 5:20 am, Paderborn, Weather by CustomWeather, © 2017

Note: Actual official high and low records may vary slightly from our data, if they occured in-between our weather recording intervals... More about our weather records

Advertising

Paderborn Weather History for the Previous 24 Hours

Scroll right to see more
 ConditionsComfort  
Time TempWeatherWind HumidityBarometerVisibility
5:20 am
Sat, Jan 21
27 °FChilly.2 mph93%30.48 "HgN/A
4:20 am27 °FChilly.2 mph93%30.48 "HgN/A
3:20 am30 °FChilly.No wind93%30.51 "HgN/A
2:20 am30 °FChilly.No wind93%30.51 "HgN/A
1:20 am32 °FChilly.1 mph87%30.51 "HgN/A
12:20 am30 °FChilly.No wind93%30.54 "HgN/A
11:20 pm
Fri, Jan 20
30 °FChilly.2 mph86%30.54 "HgN/A
10:20 pm28 °FChilly.5 mph93%30.54 "HgN/A
9:20 pm27 °FChilly.5 mph86%30.54 "HgN/A
8:20 pm25 °FCold.5 mph93%30.54 "HgN/A
7:20 pm28 °FPassing clouds.2 mph86%30.54 "HgN/A
6:20 pm28 °FPassing clouds.3 mph86%30.54 "HgN/A
5:20 pm30 °FPassing clouds.1 mph80%30.57 "HgN/A
4:20 pm37 °FScattered clouds.1 mph56%30.57 "HgN/A
3:20 pm37 °FScattered clouds.No wind52%30.54 "HgN/A
2:20 pm36 °FScattered clouds.2 mph65%30.57 "HgN/A
1:20 pm36 °FScattered clouds.2 mph60%30.57 "HgN/A
12:20 pm34 °FPartly sunny.3 mph75%30.60 "HgN/A
11:20 am32 °FPartly sunny.No wind75%30.60 "HgN/A
10:20 am28 °FPartly sunny.1 mph93%30.60 "HgN/A
9:20 am28 °FBroken clouds.1 mph86%30.60 "HgN/A
8:20 am28 °FPassing clouds.1 mph93%30.60 "HgN/A
7:20 am28 °FPassing clouds.2 mph93%30.60 "HgN/A
Weather by CustomWeather, © 2017

See weather overviewHow to use our weather pages